This demonstration page uses our WeatherBlox Daily Observations layout. Learn more.

Left ArrowRight Arrow

34.02893, -84.19858

Hourly Observations for February 14, 2020

Temp ( °F °C ) Dew Point ( °F °C ) Humidity (%) Winds ( mph kmh ) Pressure ( in mb ) Visibility ( mi km ) Precip ( " mm )
12:53 am 00:53 Clear 39 3.9 31 -0.6 73 73 NNW 15 24 30.20 1023 10 16 0.00 0.00
1:53 am 01:53 Clear 38 3.3 30 -1.1 73 73 NW 12 19 30.22 1024 10 16 0.00 0.00
2:53 am 02:53 Clear 37 2.8 29 -1.7 73 73 NW 9 15 30.24 1024 10 16 0.00 0.00
3:53 am 03:53 Clear 36 2.2 29 -1.7 76 76 NW 13 20 30.25 1024 10 16 0.00 0.00
4:53 am 04:53 Clear 36 2.2 29 -1.7 76 76 NW 9 15 30.26 1025 10 16 0.00 0.00
5:53 am 05:53 Clear 35 1.7 28 -2.2 76 76 NNW 9 15 30.28 1025 10 16 0.00 0.00
6:53 am 06:53 Clear 34 1.1 28 -2.2 79 79 NW 9 15 30.30 1026 10 16 0.00 0.00
7:53 am 07:53 Sunny 33 0.6 28 -2.2 82 82 NW 9 15 30.33 1027 10 16 0.00 0.00
8:53 am 08:53 Sunny 36 2.2 28 -2.2 73 73 NNW 8 13 30.35 1028 10 16 0.00 0.00
9:53 am 09:53 Sunny 40 4.4 28 -2.2 63 63 NW 10 17 30.37 1028 10 16 0.00 0.00
10:53 am 10:53 Sunny 43 6.1 26 -3.3 51 51 NW 9 15 30.38 1029 10 16 0.00 0.00
11:53 am 11:53 Sunny 45 7.2 27 -2.8 49 49 NW 13 20 30.39 1029 10 16 0.00 0.00
12:53 pm 12:53 Sunny 48 8.9 24 -4.4 39 39 NNW 13 20 30.37 1029 10 16 0.00 0.00
1:53 pm 13:53 Sunny 50 10 23 -5 35 35 WNW 15 24 30.35 1028 10 16 0.00 0.00
2:53 pm 14:53 Sunny 51 10.6 24 -4.4 35 35 NW 14 22 30.34 1028 10 16 0.00 0.00
3:53 pm 15:53 Sunny 50 10 20 -6.7 30 30 NNW 8 13 30.35 1028 10 16 0.00 0.00
4:53 pm 16:53 Sunny 49 9.4 17 -8.3 28 28 NW 15 24 30.36 1028 10 16 0.00 0.00
5:53 pm 17:53 Sunny 46 7.8 20 -6.7 35 35 WNW 14 22 30.38 1029 10 16 0.00 0.00
6:53 pm 18:53 Clear 42 5.6 20 -6.7 41 41 NW 10 17 30.41 1030 10 16 0.00 0.00
7:53 pm 19:53 Clear 40 4.4 21 -6.1 47 47 NW 10 17 30.42 1030 10 16 0.00 0.00
8:53 pm 20:53 Clear 38 3.3 20 -6.7 48 48 NNW 7 11 30.44 1031 10 16 0.00 0.00
9:53 pm 21:53 Clear 36 2.2 20 -6.7 52 52 NNW 7 11 30.45 1031 10 16 0.00 0.00
10:53 pm 22:53 Clear 35 1.7 19 -7.2 52 52 NNW 7 11 30.46 1031 10 16 0.00 0.00
11:53 pm 23:53 Clear 33 0.6 18 -7.8 54 54 Calm 30.45 1031 10 16 0.00 0.00

Powered by AerisWeather